EW5820 Weather Reports


Display with metric or nautical units.
time (UTC)temp
F
wind
direction
speed
MPH
gust
MPH
rain 1hr
in
rain 24hr
in
rain mn
in
humidity
%
barometer
mb
20220529111512 63 213 2.0 7.0 0.00 0.07 0.00 87 1001.6
20220529110012 64 92 2.0 7.0 0.00 0.07 0.00 87 1001.7
20220529104525 64 143 2.0 7.0 0.00 0.07 0.00 87 1001.6
20220529103022 64 137 4.0 9.0 0.00 0.07 0.00 87 1001.5
20220529101506 64 202 2.0 7.0 0.00 0.07 0.00 86 1001.7
20220529100006 64 250 2.0 6.0 0.00 0.07 0.00 86 1002.0
20220529094502 64 186 3.0 8.0 0.00 0.07 0.00 85 1002.2
20220529093001 64 167 2.0 10.0 0.00 0.07 0.00 85 1002.4
20220529091606 64 178 3.0 9.0 0.00 0.07 0.00 84 1002.6
20220529090059 64 214 3.0 10.0 0.00 0.07 0.00 84 1002.6
20220529084606 64 180 3.0 10.0 0.00 0.07 0.00 84 1002.3
20220529083057 65 97 3.0 14.0 0.00 0.07 0.00 83 1002.1
20220529081618 65 196 3.0 12.0 0.00 0.07 0.00 82 1002.2
20220529080101 65 214 2.0 11.0 0.00 0.07 0.00 81 1002.2
20220529074605 65 117 3.0 8.0 0.00 0.07 0.00 81 1002.2
20220529073050 66 174 3.0 10.0 0.00 0.07 0.00 80 1002.4
20220529071547 66 186 4.0 13.0 0.00 0.07 0.00 79 1002.6
20220529070056 67 184 3.0 13.0 0.00 0.07 0.00 78 1002.8
20220529064542 67 171 3.0 9.0 0.00 0.07 0.00 77 1003.0
20220529063040 67 202 4.0 9.0 0.00 0.07 0.00 76 1003.2
20220529061541 68 196 3.0 14.0 0.00 0.07 0.00 75 1003.4
20220529060049 68 181 3.0 13.0 0.00 0.07 0.00 74 1003.4
20220529054549 68 211 4.0 9.0 0.00 0.07 0.00 73 1003.4
20220529053031 69 167 6.0 14.0 0.00 0.07 0.00 72 1003.4
20220529051528 69 187 5.0 16.0 0.00 0.07 0.00 71 1003.5
20220529050025 70 193 5.0 14.0 0.00 0.07 0.00 70 1003.4
20220529044524 70 224 6.0 13.0 0.00 0.07 0.07 69 1003.3
20220529043039 70 208 4.0 12.0 0.00 0.07 0.07 68 1003.3
20220529041523 71 203 4.0 17.0 0.00 0.07 0.07 67 1003.4
20220529040033 71 238 4.0 12.0 0.00 0.07 0.07 67 1003.3
20220529034532 72 251 3.0 11.0 0.00 0.07 0.07 66 1003.2
20220529033024 73 177 5.0 14.0 0.00 0.07 0.07 64 1003.1
20220529031527 73 218 4.0 14.0 0.00 0.07 0.07 63 1003.0
20220529030021 74 221 2.0 9.0 0.00 0.07 0.07 61 1002.8
20220529024520 75 191 5.0 12.0 0.00 0.07 0.07 61 1002.5
20220529023028 75 167 4.0 11.0 0.00 0.07 0.07 60 1002.5
20220529021528 76 193 5.0 13.0 0.00 0.07 0.07 59 1002.4
20220529020018 77 224 5.0 12.0 0.00 0.07 0.07 58 1002.3
20220529014518 77 210 4.0 11.0 0.00 0.07 0.07 57 1002.2
20220529013017 78 143 4.0 10.0 0.00 0.07 0.07 55 1002.1
20220529011520 80 53 4.0 12.0 0.00 0.07 0.07 53 1002.0
20220529010034 81 349 3.0 8.0 0.00 0.07 0.07 52 1001.9
20220529004515 82 196 4.0 14.0 0.00 0.07 0.07 50 1001.8
20220529003037 82 182 5.0 11.0 0.00 0.07 0.07 49 1001.7
20220529001614 82 184 6.0 12.0 0.00 0.07 0.07 49 1001.7
20220529000013 82 217 4.0 11.0 0.00 0.07 0.07 49 1001.6
20220528234516 83 103 4.0 15.0 0.00 0.07 0.07 47 1001.6
20220528233013 84 168 6.0 16.0 0.00 0.07 0.07 46 1001.7
20220528231511 84 82 5.0 20.0 0.00 0.07 0.07 46 1001.7
20220528230010 83 174 5.0 16.0 0.00 0.07 0.07 46 1001.7
20220528224508 84 211 4.0 18.0 0.00 0.07 0.07 45 1001.7
20220528223005 85 196 7.0 16.0 0.00 0.07 0.07 44 1001.9
20220528221504 84 264 8.0 17.0 0.00 0.07 0.07 44 1002.1
20220528220058 84 174 9.0 19.0 0.00 0.07 0.07 44 1002.2
20220528214555 84 212 9.0 19.0 0.00 0.07 0.07 44 1002.4
20220528213058 84 195 6.0 19.0 0.00 0.07 0.07 45 1002.5
20220528211552 83 198 6.0 21.0 0.00 0.07 0.07 46 1002.7
20220528210052 83 187 7.0 18.0 0.00 0.07 0.07 48 1003.0
20220528204546 82 236 8.0 24.0 0.00 0.07 0.07 48 1003.1
20220528203058 81 150 8.0 21.0 0.00 0.07 0.07 50 1003.5
20220528201542 81 216 6.0 17.0 0.00 0.07 0.07 50 1003.9
20220528200036 79 167 8.0 16.0 0.00 0.07 0.07 51 1004.4
20220528194554 78 227 8.0 21.0 0.00 0.07 0.07 51 1004.5
20220528193031 78 205 7.0 19.0 0.00 0.07 0.07 51 1004.9
20220528191529 76 212 7.0 21.0 0.00 0.07 0.07 53 1005.0
20220528190030 77 209 6.0 26.0 0.00 0.07 0.07 52 1005.2
20220528184530 78 114 11.0 24.0 0.00 0.07 0.07 49 1005.1
20220528183025 78 162 10.0 24.0 0.00 0.07 0.07 50 1005.1
20220528181521 77 147 10.0 25.0 0.00 0.07 0.07 52 1005.2
20220528180021 76 220 12.0 29.0 0.00 0.07 0.07 53 1005.3
20220528174533 76 203 11.0 25.0 0.00 0.07 0.07 51 1005.6
20220528173021 76 153 7.0 25.0 0.00 0.07 0.07 52 1005.5
20220528171524 76 214 12.0 24.0 0.00 0.07 0.07 49 1005.3
20220528170014 75 219 7.0 21.0 0.00 0.07 0.07 51 1005.5
20220528164524 75 23 6.0 22.0 0.00 0.07 0.07 52 1005.8
20220528163018 73 72 7.0 18.0 0.00 0.07 0.07 52 1005.7
20220528161506 71 191 9.0 19.0 0.00 0.07 0.07 55 1005.9
20220528160104 70 117 8.0 14.0 0.00 0.07 0.07 62 1006.1
20220528154559 69 127 5.0 13.0 0.00 0.07 0.07 64 1006.4
20220528153102 69 146 7.0 18.0 0.00 0.07 0.07 62 1006.7
20220528151556 67 219 4.0 15.0 0.00 0.07 0.07 67 1007.0
20220528150045 66 203 6.0 15.0 0.00 0.07 0.07 69 1007.3
20220528144554 63 195 3.0 11.0 0.01 0.07 0.07 77 1007.8
20220528143140 62 89 4.0 12.0 0.01 0.07 0.07 78 1007.9
20220528141537 60 127 5.0 11.0 0.06 0.07 0.07 81 1008.0
20220528140037 59 194 2.0 12.0 0.07 0.07 0.07 82 1008.5
20220528134533 59 255 3.0 10.0 0.06 0.06 0.06 82 1008.6
20220528133035 59 115 5.0 12.0 0.06 0.06 0.06 82 1008.3
20220528131529 61 219 1.0 5.0 0.00 0.00 0.00 75 1010.0
20220528130029 61 184 0.0 3.0 0.00 0.00 0.00 76 1010.2
20220528124535 61 223 0.0 2.0 0.00 0.00 0.00 75 1010.5
20220528123041 61 212 0.0 4.0 0.00 0.00 0.00 74 1010.2
20220528121527 61 123 1.0 6.0 0.00 0.00 0.00 74 1009.0
20220528120027 60 207 2.0 6.0 0.00 0.00 0.00 75 1009.1
20220528114533 61 160 2.0 5.0 0.00 0.00 0.00 74 1009.2
20220528113029 61 117 1.0 9.0 0.00 0.00 0.00 74 1009.4